FENGYUN 1C DEB

Satellite information

Favourite Embed

Satellite Type and Status

DEBRISIN ORBIT

Key statistics

Satellite FENGYUN 1C DEB at a glance.

Uptime

9495

Days in orbit

Revolutions

≈ 14.1

Per day

Orbit

SSO

Sun Synchronous Orbit

Inclination

98.7

Latest

Satellite identification and parameters

Extended collection of information and parameters for FENGYUN 1C DEB.

Object identification

Identified? True

Debris? True

Object name: FENGYUN 1C DEB

International designator: 1999-025AAP

Object number (NORAD): 30328

Object ID (CCSDS): 30328

Country: PEOPLES REPUBLIC OF CHINA (PRC)

Current information (Y/N): Y

RCS size: SMALL

Orbital parameters

Period: 101.958 minutes

Inclination: 98.6928 deg

SMA: 7229.479 km

Apoapsis: 856.071 km

Periapsis: 846.617 km

RAAN: 143.3577 deg

Eccentricy: 0.0006538

Argument of periapsis: 74.0567 deg

Mean anomaly: 53.7875 deg

Mean motion: 14.12349799 rev/day

Mean motion (dot): 0.00000297 rev/day2

B* drag term: 0.00018447 1/REarth

Two-line elements (TLE)

Creation date: May 7, 2025, 3:14 a.m.

Reference frame: TEME

Reference center: EARTH

Epoch: May 6, 2025, 3:02 p.m. UTC

TLE line 0: 0 FENGYUN 1C DEB

TLE line 1: 1 30328U 99025AAP 25126.62666994 .00000297 00000-0 18447-3 0 9990

TLE line 2: 2 30328 98.6928 143.3577 0006538 74.0567 53.7875 14.12349799941571

Live tracking on map

Real-time ground track for satellite FENGYUN 1C DEB.

In-orbit conjunctions

There are no conjunctions computed for FENGYUN 1C DEB, at the moment. Check back to stay up to date, as we update our databases every day.

Go to all conjunctions

Associated space launch

Chinese polar orbiting meteorological satellite

FENGYUN 1C DEB was lifted into orbit during the mission ‘Long March 4B | Feng Yun 1C’, on board a Long March 4B space rocket.

The launch took place on May 10, 1999, 1:33 a.m. from Launch Complex 7.

For more information about the launch, click the button.

Launch to space Long March 4B | Feng Yun 1C
Long March 4B | Feng Yun 1C

Agency: N/A

Status: Launch Successful

Launch date: May 10, 1999, 1:33 a.m. UTC

Rocket: Long March 4B

Launch pad: Launch Complex 7

Location: Taiyuan Satellite Launch Center, People's Republic of China

...

Latest news about this satellite

There are no fresh news available about this satellite. Check back as we update our databases every day.


Newsletter sign-up

Weekly statistics, charts and insights to help you stay on top of the space industry.